Flag for Germany Weather past 2 weeks in Siegburg, North Rhine-Westphalia, Germany

Now
33 °F

Clear.


Feels Like: 28 °F
Forecast: 39 / 50 °F
Wind: 5 mph from South

Location: Bonn-Hangelar

Current Time: Feb 28, 2015 at 8:06:55 AM

Latest Report: Feb 28, 2015 at 7:00 AM


Visibility: 16 mi

Pressure: 30.15 "Hg

Humidity: 85%

Dew point: 29 °F

Location of SiegburgLocation

Historic Weather in Siegburg — Graph

°F

Siegburg temperature yesterday

Maximum temperature yesterday: 44 °F (at 1:00 AM)
Minimum temperature yesterday: 33 °F (at 11:00 PM)
Average temperature yesterday: 39 °F

Past Weeks' High & Low Weather Summary

 TemperatureHumidityPressure
High50 °F (Feb 13, 1:00 PM)100% (Feb 17, 4:00 AM)30.78 "Hg (Feb 17, 4:00 AM)
Low29 °F (Feb 17, 2:00 AM)57% (Feb 13, 3:00 PM)29.38 "Hg (Feb 21, 3:00 AM)
Average38 °F86%29.98 "Hg
* Reported Feb 13 7:00 AM — Feb 28 7:00 AM, Siegburg, Weather by CustomWeather, © 2015

Note: Actual official high and low records may vary slightly from our data, if they occured in-between our weather recording intervals... More about our weather records

Advertising

Siegburg weather history for previous 24 hours

 ConditionsComfort  
Time TempWeatherWind HumidityBarometerVisibility
7:00 AM
Sat, Feb 28
33 °FClear.5 mph85%30.15 "Hg16 mi
6:00 AM33 °FClear.6 mph87%30.15 "Hg16 mi
5:00 AM32 °FClear.6 mph88%30.17 "Hg7 mi
4:00 AM33 °FClear.6 mph90%30.17 "Hg7 mi
3:00 AM32 °FClear.5 mph91%30.18 "Hg7 mi
2:00 AM32 °FClear.3 mph92%30.19 "Hg8 mi
1:00 AM31 °FClear.3 mph93%30.20 "Hg6 mi
12:00 AM32 °FClear.3 mph92%30.19 "Hg7 mi
11:00 PM
Fri, Feb 27
33 °FClear.2 mph88%30.21 "Hg12 mi
10:00 PM33 °FClear.3 mph87%30.20 "Hg13 mi
9:00 PM36 °FPassing clouds.5 mph82%30.18 "Hg31 mi
8:00 PM38 °FPassing clouds.5 mph75%30.16 "Hg37 mi
7:00 PM37 °FPassing clouds.3 mph76%30.13 "Hg37 mi
6:00 PM39 °FPassing clouds.3 mph75%30.11 "Hg37 mi
5:00 PM42 °FScattered clouds.6 mph66%30.09 "Hg28 mi
4:00 PM42 °FPassing clouds.6 mph68%30.08 "Hg25 mi
3:00 PM42 °FPartly sunny.7 mph70%30.06 "Hg25 mi
2:00 PM41 °FPartly sunny.7 mph76%30.04 "Hg22 mi
1:00 PM41 °FOvercast.6 mph74%30.03 "Hg14 mi
12:00 PM40 °FOvercast.7 mph84%30.01 "Hg12 mi
11:00 AM40 °FLow clouds.7 mph87%30.00 "Hg9 mi
10:00 AM38 °FLow clouds.6 mph93%29.98 "Hg6 mi
9:00 AM38 °FLow clouds.7 mph93%29.95 "Hg5 mi
8:00 AM38 °FRain. Low clouds.8 mph95%29.93 "Hg5 mi
Weather by CustomWeather, © 2015

See weather overviewHow to use our weather pages